Vorticity
9 9 10 9 7 7 7 10 12 9 16 11 9 5 6 6 10 10 13 10 9 12 11 23 18 12 10 11 11 -3 23 8 7 13 12 -1 5 21 18 21 14 22 15 20 7 6 -3
7 8 8 9 8 8 10 10 7 9 11 14 7 9 9 11 12 14 12 10 5 12 14 23 14 13 8 7 6 7 15 7 11 14 6 8 10 17 20 21 18 19 14 3 7 14 14
6 5 6 8 7 8 8 7 9 10 11 10 12 10 15 17 16 14 16 6 18 8 15 16 16 11 7 4 11 17 7 8 12 4 8 12 11 15 24 9 6 13 29 12 -1 9 -1
10 7 6 6 10 7 6 9 10 10 13 12 14 14 15 15 14 20 10 24 7 8 13 18 14 8 6 3 13 14 10 9 14 2 8 13 14 14 6 7 15 12 8 -2 29 26 16
10 10 7 10 7 5 10 12 12 13 11 10 12 21 21 20 18 26 23 7 7 12 10 16 13 8 4 1 17 9 7 11 16 1 -1 9 -1 10 -0 -1 6 -13 6 16 1 4 12
10 9 13 10 6 9 14 13 10 14 9 14 22 19 19 21 19 13 13 5 11 20 4 14 10 9 2 12 14 5 7 20 18 8 3 5 4 11 13 2 2 1 -8 -5 6 -5 0
5 11 11 7 8 11 14 10 18 1 24 13 15 28 29 18 11 13 13 12 23 -4 7 10 14 7 8 8 9 7 8 14 19 21 12 7 5 10 6 -6 -3 -1 1 -1 2 -4 9
5 9 8 7 11 13 17 14 -0 27 40 49 30 34 25 35 40 9 9 20 7 2 16 7 12 6 7 12 5 7 9 9 8 11 14 17 19 15 10 9 12 7 1 -4 8 -1 -4
5 8 5 12 9 16 15 -7 52 41 33 34 42 46 25 15 50 15 15 14 10 27 17 1 9 5 14 8 8 5 7 8 5 2 3 13 8 10 14 13 17 13 7 2 2 -1 4
5 6 7 13 10 16 -3 38 46 32 29 3 33 44 36 25 31 26 16 26 27 24 14 10 8 19 21 4 7 8 4 8 5 8 8 6 7 7 8 9 14 18 12 12 7 6 10
8 5 9 12 7 9 23 57 38 27 12 25 31 24 15 30 18 21 23 28 20 12 8 6 7 20 7 6 8 5 7 7 3 4 4 9 9 9 13 16 14 24 22 14 13 6 5
6 8 10 8 7 8 51 50 30 16 13 23 12 9 37 17 17 15 28 14 12 11 0 10 15 20 4 5 5 5 7 1 2 4 6 7 10 11 18 22 24 15 33 28 16 17 10
3 7 9 9 3 29 61 45 16 20 24 25 24 42 10 11 18 24 12 13 1 13 13 11 12 6 6 6 5 5 4 3 4 2 7 10 3 14 22 30 31 35 27 29 29 27 15
7 5 7 5 18 34 66 21 13 8 24 28 23 10 12 15 27 2 7 4 12 5 20 17 12 5 4 6 4 5 5 4 4 -3 1 2 8 10 18 37 36 38 29 -22 22 11 19
9 5 6 7 25 45 68 0 9 23 16 13 22 12 17 26 -32 26 14 8 6 3 19 4 7 3 3 4 4 2 4 4 1 4 3 5 4 7 21 38 33 34 7 -9 30 28 16
7 6 6 11 23 52 39 11 22 18 18 12 7 14 28 -23 21 14 7 4 4 12 13 10 7 2 4 4 4 4 4 1 3 3 -0 3 8 9 11 28 45 23 5 9 9 -9 20
5 7 2 14 31 52 42 7 10 10 12 14 25 35 4 18 1 7 3 6 10 11 9 4 7 4 5 5 5 6 2 1 3 5 4 1 9 9 13 40 56 24 11 11 4 14 16
6 8 3 12 35 39 16 18 12 13 30 20 30 20 11 4 6 1 8 -1 21 5 7 7 5 5 6 6 7 6 3 4 3 4 4 -1 7 3 4 4 44 55 11 16 1 10 -3
5 7 4 16 31 31 12 23 24 34 23 17 12 4 -0 7 -3 18 14 19 10 9 6 6 6 6 7 5 5 3 2 3 3 2 4 1 2 5 3 10 3 53 4 19 3 -7 -1
7 8 5 18 27 20 16 29 28 12 4 3 6 6 8 -1 9 18 13 14 5 5 5 5 5 6 6 6 5 2 4 4 4 3 3 4 3 6 8 9 10 15 41 22 15 3 -6
6 9 8 15 25 27 19 13 19 5 1 5 10 1 1 7 18 14 13 1 5 6 5 5 6 7 6 8 5 4 4 4 4 3 3 5 3 4 3 6 9 11 18 25 51 4 6
8 9 14 11 21 37 19 17 8 4 5 -0 3 5 8 13 8 12 12 3 5 3 5 6 7 7 4 10 6 6 4 6 6 3 2 1 1 3 6 4 3 10 9 12 25 22 45
6 7 17 6 21 34 17 -1 -5 -0 3 7 11 9 4 15 4 11 11 0 7 3 5 5 7 8 5 8 8 6 7 6 7 4 3 2 1 4 1 6 5 5 9 10 6 9 11
3 6 12 16 21 20 -13 -9 2 2 3 8 8 15 7 12 10 8 8 -1 4 3 5 6 6 6 4 7 7 7 8 8 6 4 3 2 3 2 2 5 7 7 6 7 14 6 6
2 7 13 28 13 -12 -5 10 -7 11 -1 9 9 7 10 9 14 7 6 4 4 6 5 8 6 7 5 7 7 7 7 8 6 5 5 4 3 2 5 6 6 3 3 5 4 8 11
2 3 14 19 3 -6 -3 -8 3 -2 11 4 3 5 7 12 9 14 6 3 2 3 3 8 5 7 6 6 4 8 6 6 6 5 5 5 6 5 6 4 6 7 10 6 3 3 10
3 -1 8 7 9 30 13 1 -7 2 -3 6 10 6 13 14 10 12 10 7 4 3 1 8 4 5 8 5 6 4 8 8 7 5 4 5 6 4 2 3 2 2 4 8 6 7 12
6 -3 1 7 16 7 12 23 2 4 2 -2 -0 6 11 10 13 12 11 11 8 5 2 3 6 4 7 7 5 6 6 9 9 2 6 5 6 6 3 2 3 2 5 9 5 7 8
-8 8 2 -1 6 19 6 -6 36 4 3 1 -1 -1 1 7 8 12 14 14 16 7 -0 -0 4 3 3 8 7 5 7 6 10 7 6 6 4 5 7 4 3 3 2 4 5 5 7
Height
5770 5762 5753 5743 5735 5727 5720 5709 5701 5693 5686 5679 5674 5669 5664 5661 5658 5658 5658 5656 5656 5658 5658 5659 5660 5662 5665 5667 5667 5667 5667 5666 5665 5665 5663 5660 5656 5650 5644 5639 5638 5637 5636 5632 5628 5627 5625
5761 5752 5742 5733 5723 5714 5703 5693 5685 5678 5671 5664 5657 5652 5649 5646 5643 5642 5644 5646 5647 5647 5648 5650 5652 5655 5658 5661 5662 5662 5661 5661 5660 5660 5659 5657 5651 5645 5641 5637 5635 5635 5633 5630 5626 5624 5622
5752 5743 5734 5722 5713 5701 5688 5677 5672 5664 5655 5648 5642 5637 5630 5628 5627 5627 5628 5632 5636 5638 5640 5642 5646 5650 5652 5655 5655 5657 5657 5657 5656 5656 5657 5652 5647 5644 5640 5637 5634 5633 5631 5629 5626 5624 5622
5745 5735 5723 5712 5700 5684 5672 5664 5655 5646 5636 5628 5623 5618 5614 5608 5607 5610 5614 5619 5625 5629 5633 5636 5640 5644 5647 5649 5651 5654 5654 5653 5653 5654 5654 5649 5646 5643 5639 5637 5635 5633 5631 5629 5627 5624 5622
5738 5728 5714 5700 5685 5670 5658 5648 5638 5626 5617 5608 5600 5595 5592 5594 5593 5596 5601 5608 5614 5621 5626 5630 5636 5640 5643 5646 5649 5650 5651 5650 5650 5652 5650 5647 5645 5642 5640 5636 5634 5632 5630 5628 5626 5624 5623
5731 5718 5703 5687 5672 5659 5645 5631 5620 5609 5597 5584 5577 5573 5571 5573 5578 5582 5589 5596 5605 5614 5621 5625 5630 5637 5641 5644 5646 5648 5649 5648 5648 5648 5647 5644 5643 5642 5639 5635 5633 5630 5629 5628 5627 5626 5623
5723 5709 5693 5675 5662 5646 5629 5617 5603 5589 5573 5560 5552 5547 5547 5552 5562 5569 5578 5586 5598 5608 5614 5621 5627 5632 5638 5642 5644 5647 5647 5648 5646 5646 5644 5643 5642 5639 5637 5635 5631 5627 5627 5626 5627 5625 5622
5717 5701 5684 5664 5648 5630 5614 5601 5586 5564 5548 5535 5527 5526 5529 5532 5543 5556 5567 5578 5589 5600 5609 5617 5623 5630 5636 5640 5643 5645 5647 5647 5645 5645 5644 5643 5640 5638 5634 5631 5629 5626 5623 5622 5624 5622 5623
5711 5696 5674 5653 5634 5614 5598 5586 5560 5544 5532 5523 5514 5512 5518 5525 5531 5546 5560 5572 5583 5593 5604 5614 5621 5628 5634 5639 5643 5645 5646 5647 5646 5645 5644 5642 5639 5635 5630 5626 5623 5622 5621 5620 5620 5620 5621
5707 5689 5667 5643 5622 5601 5584 5567 5545 5534 5527 5522 5514 5510 5514 5522 5531 5543 5555 5566 5576 5589 5603 5613 5620 5627 5633 5638 5643 5645 5647 5648 5647 5647 5644 5641 5637 5631 5625 5620 5616 5613 5611 5613 5615 5617 5621
5704 5684 5661 5633 5613 5591 5575 5552 5541 5533 5528 5523 5519 5518 5520 5524 5533 5545 5555 5565 5578 5592 5603 5613 5620 5626 5633 5639 5643 5646 5648 5649 5649 5648 5647 5643 5636 5628 5620 5614 5607 5606 5602 5604 5608 5612 5618
5702 5680 5656 5630 5607 5585 5565 5549 5542 5537 5533 5530 5527 5526 5526 5532 5541 5550 5559 5571 5584 5596 5603 5613 5621 5627 5634 5640 5644 5647 5649 5651 5650 5649 5646 5642 5636 5626 5614 5605 5598 5594 5596 5598 5601 5608 5615
5700 5680 5654 5629 5605 5584 5561 5552 5548 5543 5539 5538 5535 5534 5538 5544 5550 5558 5567 5578 5589 5597 5606 5615 5622 5628 5636 5641 5646 5649 5651 5652 5652 5651 5646 5641 5633 5622 5609 5598 5590 5587 5590 5595 5600 5604 5609
5700 5681 5653 5629 5609 5584 5566 5561 5558 5554 5551 5550 5549 5549 5551 5555 5561 5570 5580 5587 5595 5601 5609 5617 5624 5632 5639 5644 5649 5652 5654 5654 5654 5652 5648 5641 5631 5620 5604 5593 5585 5585 5589 5593 5600 5602 5606
5701 5683 5657 5634 5613 5589 5574 5572 5568 5565 5565 5564 5565 5564 5565 5568 5574 5578 5587 5594 5600 5607 5614 5621 5629 5636 5642 5648 5653 5655 5655 5656 5655 5653 5649 5641 5633 5621 5605 5592 5587 5587 5591 5596 5599 5602 5607
5703 5686 5662 5641 5618 5598 5585 5585 5581 5577 5577 5577 5580 5579 5578 5581 5583 5591 5598 5602 5608 5615 5623 5629 5636 5641 5647 5651 5655 5657 5658 5658 5656 5654 5650 5645 5637 5626 5611 5597 5591 5593 5597 5601 5604 5606 5609
5704 5690 5669 5647 5627 5610 5599 5597 5594 5590 5590 5588 5591 5593 5593 5594 5597 5602 5608 5612 5618 5623 5629 5636 5642 5646 5651 5655 5658 5660 5661 5661 5659 5657 5654 5648 5642 5634 5621 5608 5599 5601 5603 5606 5610 5612 5612
5706 5694 5675 5655 5639 5624 5613 5610 5607 5602 5602 5600 5603 5613 5610 5612 5615 5617 5619 5622 5625 5632 5637 5643 5647 5652 5655 5659 5661 5663 5663 5664 5662 5660 5657 5652 5646 5639 5632 5620 5610 5607 5610 5611 5614 5616 5616
5708 5698 5684 5664 5652 5638 5628 5627 5617 5614 5619 5616 5622 5627 5628 5629 5632 5632 5631 5633 5636 5641 5646 5650 5654 5657 5660 5662 5664 5666 5666 5666 5664 5662 5659 5655 5650 5645 5638 5632 5623 5616 5616 5616 5618 5619 5619
5711 5702 5691 5674 5663 5653 5644 5637 5638 5629 5627 5633 5636 5640 5642 5643 5645 5644 5644 5645 5648 5651 5654 5657 5660 5662 5664 5666 5667 5668 5669 5669 5667 5665 5663 5659 5654 5650 5644 5638 5632 5627 5622 5622 5622 5621 5621
5713 5705 5696 5683 5672 5665 5655 5656 5648 5644 5643 5640 5642 5650 5653 5652 5654 5656 5655 5655 5657 5659 5661 5663 5665 5667 5669 5670 5671 5671 5672 5671 5670 5667 5665 5663 5660 5655 5650 5645 5638 5635 5630 5627 5623 5623 5623
5713 5706 5698 5690 5681 5675 5668 5665 5665 5662 5648 5657 5655 5652 5659 5660 5661 5662 5665 5666 5665 5666 5668 5669 5670 5671 5673 5673 5674 5674 5674 5673 5672 5670 5668 5666 5664 5660 5656 5651 5645 5640 5635 5631 5628 5626 5623
5714 5707 5701 5694 5688 5683 5679 5674 5671 5673 5677 5669 5662 5659 5657 5667 5667 5669 5670 5672 5672 5673 5674 5674 5675 5675 5676 5676 5676 5676 5676 5675 5674 5672 5670 5669 5666 5664 5660 5656 5651 5647 5641 5637 5632 5629 5625
5713 5709 5703 5698 5692 5688 5687 5684 5684 5679 5673 5677 5674 5670 5664 5665 5671 5672 5673 5674 5676 5677 5677 5678 5678 5678 5679 5678 5678 5678 5677 5677 5675 5674 5672 5670 5668 5666 5663 5660 5656 5652 5646 5642 5637 5634 5630
5710 5708 5702 5699 5697 5692 5690 5688 5685 5684 5683 5678 5676 5677 5673 5668 5669 5674 5675 5676 5677 5679 5680 5681 5681 5681 5680 5679 5679 5679 5678 5678 5676 5675 5673 5671 5670 5668 5665 5662 5660 5655 5650 5647 5642 5638 5633
5707 5703 5701 5698 5696 5693 5691 5688 5687 5685 5682 5682 5683 5681 5677 5676 5673 5671 5675 5675 5676 5678 5679 5680 5681 5680 5680 5680 5679 5679 5678 5678 5677 5676 5674 5672 5671 5669 5667 5664 5661 5658 5654 5650 5646 5642 5636
5702 5699 5698 5693 5691 5690 5688 5687 5685 5681 5680 5679 5675 5673 5676 5677 5676 5674 5671 5674 5675 5675 5676 5678 5679 5678 5678 5678 5679 5679 5678 5677 5677 5675 5674 5672 5671 5669 5667 5665 5662 5659 5656 5652 5649 5648 5640
5695 5693 5691 5690 5688 5686 5683 5684 5682 5680 5678 5677 5676 5677 5676 5671 5672 5674 5673 5670 5671 5672 5672 5673 5676 5676 5675 5675 5676 5676 5676 5676 5675 5675 5673 5672 5670 5669 5667 5665 5664 5660 5656 5654 5651 5646 5643
5685 5686 5684 5683 5681 5680 5677 5679 5677 5677 5675 5673 5674 5673 5672 5671 5670 5667 5668 5668 5667 5668 5668 5669 5670 5671 5671 5672 5672 5673 5673 5673 5673 5672 5671 5671 5669 5668 5667 5665 5662 5660 5657 5654 5650 5646 5643